Terug naar catalogus

STARLINK-31428

ActiefCommunicatieVLEO
NORAD 59367·PAYLOAD·🇺🇸 United States

Gelanceerd Mar 31, 2024 vanaf Cape Canaveral Space Force Station

Loading…

Volgende Passages (komende 24 uur)

TLE

VersSource: CelesTrak SupGP

Epoch: Sep 15, 2026, 02:02 UTC

1 59367C 24060V   26258.08520833  .00004386  00000+0  15886-3 0  2583
2 59367  43.0008 270.0704 0001514 268.0195 340.0198 15.27573502    12

Volg STARLINK-31428 in realtime met AllMySat

Download on the App Store